sat.trackr.live / text

‹ back to catalog

STARLINK-5324

NORAD 55677 · 2023-021BB

PAYLOAD ACTIVE UNKNOWN

§ Identity

Operator
Country
US
Launch date
2023-02-17
Launch site
AFWTR
Launch vehicle
Mass (kg)
RCS (m²)

Purposes: comms

External: N2YO · Heavens-Above · Gunter

§ Orbital elements

Epoch: 2026-09-20T14:16:47.871264Z

Period
96.11 min
Inclination
70.0011°
Eccentricity
0.0003211
Mean motion
14.98333028 rev/d
Perigee alt
569.8 km
Apogee alt
574.3 km
Semi-major
6,950.2 km
B*
1.4312e-5
RAAN
12.9874°
Arg perigee
270.6728°
Mean anomaly
89.4063°
Rev number
19,897

§ Raw data

STARLINK-53241 55677U 23021BB  26263.59499851  .00000078  00000+0  14312-4 0  99962 55677  70.0011  12.9874 0003211 270.6728  89.4063 14.98333028198976

JSON: /api/v1/satellites/55677 · /tle

For live sub-satellite position, see the globe view (requires WebGL).

§ Visibility from observer

Set your observer location to see the next 7 days of passes ≥ 10°. The values pass through the URL so the page stays shareable.

No JS? Fill the form by hand. The geolocation button needs JavaScript.